マクノート彗星

P/2009 U4 ( McNaught )

English version
Home page
Updated on March 27, 2010

---------------------------------------------------------------------

・ プロフィール

発見日 2009年10月23日
発見光度 16.8等
発見者 Robert H. McNaught (Siding Spring Observatory)

・ 軌道要素

Epoch 2009 Sept. 6.0 TT = JDT 2455080.5
T 2009 Sept.  9.09893 TT                                MPC
q   1.6490157            (2000.0)            P               Q
n   0.08614959     Peri.  259.90459     +0.70198663     +0.69732151
a   5.0773126      Node    55.70352     -0.56533522     +0.66922722
e   0.6752188      Incl.   10.09230     -0.43314069     +0.25666639
P  11.44

・ 星図

・ 光度変化

        m1 = 14.0 + 5 logΔ + 10.0 log r

---------------------------------------------------------------------

軌道要素はM.P.E.C. 2009-Y13に掲載されたものです。
星図はステラナビゲータ Ver.8 (アストロアーツ) で作成したものです。
光度グラフはComet for Windowsで作成したものです。

---------------------------------------------------------------------

Copyright(C) Seiichi Yoshida (comet@aerith.net). All rights reserved.